Regional Weather Roundup
Issued by NWS

Home | Current Version | Previous Version | Text Only | Print | Product List | Glossary Off
Versions: 1 2 3 4 5 6 7 8 9 10 11 12 13 14 15 16 17 18 19 20 21 22 23 24 25 26 27 28 29 30 31 32 33 34 35 36 37 38 39 40 41 42 43 44 45 46 47 48 49 50

000
ASUS43 KLMK 172010
RWRKY
KENTUCKY REGIONAL WEATHER ROUNDUP
NATIONAL WEATHER SERVICE LOUISVILLE KY
400 PM EDT TUE OCT 17 2017

NOTE "FAIR" INDICATES FEW OR NO CLOUDS BELOW 12,000 FEET
WITH NO SIGNIFICANT WEATHER AND/OR OBSTRUCTIONS TO VISIBILITY.

KYZ001>023-026-027-061>063-070>075-172100-
WESTERN AND SOUTH CENTRAL KENTUCKY

CITY           SKY/WX    TMP DP  RH WIND       PRES   REMARKS
PADUCAH        SUNNY     68  39  34 E3        30.25F
HENDERSON      SUNNY     67  39  35 SW5       30.27F
OWENSBORO      MOSUNNY   67  42  40 S5        30.28F
HOPKINSVILLE   SUNNY     66  38  34 CALM      30.26F
BOWLING GREEN  SUNNY     67  43  41 E5        30.28F
GLASGOW        SUNNY     68  39  34 E5        30.28F
$$

KYZ024-025-028>034-038-045-046-053-172100-
NORTH CENTRAL KENTUCKY

CITY           SKY/WX    TMP DP  RH WIND       PRES   REMARKS
LOUISVILLE/SDF MOSUNNY   66  40  38 SE9       30.28F
LOUISVILLE/LOU SUNNY     65  43  44 SW7       30.29F
FORT KNOX      SUNNY     65  39  38 W3        30.27F
$$

KYZ035>037-039>044-047>052-055>060-089>105-172100-
NORTHEAST KENTUCKY

CITY           SKY/WX    TMP DP  RH WIND       PRES   REMARKS
LEXINGTON      SUNNY     64  40  41 VRB3      30.29F
COVINGTON      MOSUNNY   65  41  41 S9        30.27F
FRANKFORT      SUNNY     66  38  35 VRB3      30.27F
$$

KYZ054-064>069-076>088-106>120-172100-
SOUTHEAST KENTUCKY

CITY           SKY/WX    TMP DP  RH WIND       PRES   REMARKS
JACKSON        SUNNY     64  38  38 CALM      30.29F
LONDON         SUNNY     63  36  36 VRB5      30.29F
SOMERSET       SUNNY     63  36  36 CALM      30.30F
MIDDLESBORO    SUNNY     64  36  35 CALM      30.29F
MONTICELLO     CLEAR     65  41  41 VRB7      30.31F
$$





USA.gov is the U.S. government's official web portal to all federal, state and local government web resources and services.